Regional Weather Roundup
Issued by NWS

Home | Current Version | Previous Version | Text Only | Print | Product List | Glossary Off
Versions: 1 2 3 4 5 6 7 8 9 10 11 12 13 14 15 16 17 18 19 20 21 22 23 24 25 26 27 28 29 30 31 32 33 34 35 36 37 38 39 40 41 42 43 44 45 46 47 48 49 50

000
ASUS45 KPSR 060710
RWRAZ

ARIZONA REGIONAL HOURLY WEATHER ROUNDUP
NATIONAL WEATHER SERVICE PHOENIX AZ
1200 AM MST FRI MAR 06 2015

NOTE: FAIR INDICATES FEW OR NO CLOUDS BELOW 12,000 FEET WITH NO
SIGNIFICANT WEATHER AND/OR OBSTRUCTIONS TO VISIBILITY.

AZZ001>003-036-060800-
NORTHWEST ARIZONA

CITY           SKY/WX    TMP DP  RH WIND       PRES   REMARKS
BULLHEAD CITY  CLEAR     63  23  22 N23       30.24F
KINGMAN        CLEAR     39  28  64 E8        30.31F WCI  33
$$

AZZ004>008-015-016-018-060800-
NORTH CENTRAL ARIZONA

CITY           SKY/WX    TMP DP  RH WIND       PRES   REMARKS
GRAND CANYON   CLEAR     18  15  88 NE5       30.39F WCI  11
PRESCOTT       CLEAR     33  20  58 S7        30.32F WCI  27
FLAGSTAFF      PTCLDY    19  11  70 CALM      30.36F
PAYSON         CLEAR     45   7  21 E6        30.32S
PAGE           CLEAR     38  24  57 CALM      30.38F
$$

AZZ009>014-017-060800-
NORTHEAST ARIZONA

CITY           SKY/WX    TMP DP  RH WIND       PRES   REMARKS
WINSLOW        CLEAR     27  18  69 W5        30.37F WCI  22
SAINT JOHNS    CLEAR     30  12  47 CALM      30.35S
WINDOW ROCK    CLEAR     22  16  78 CALM      30.40S
SHOW LOW       CLEAR     28  10  47 CALM      30.38S
$$

AZZ023-060800-
GREATER PHOENIX AREA

CITY           SKY/WX    TMP DP  RH WIND       PRES   REMARKS
PHOENIX        CLEAR     61  28  28 NE9       30.17S
BUCKEYE        CLEAR     54  34  47 NE7       30.18R
LUKE AFB       CLEAR     53  35  51 NE8       30.17S
DEER VALLEY    CLEAR     56  24  29 E9        30.18F
SCOTTSDALE     CLEAR     61  21  21 CALM      30.20S
MESA-GATEWAY   CLEAR     57  28  33 SE5       30.20F
$$

AZZ027-028-060800-
SOUTHWEST MARICOPA COUNTY AND PINAL COUNTY

CITY           SKY/WX    TMP DP  RH WIND       PRES   REMARKS
CASA GRANDE    CLEAR     55  27  33 NE12      30.18F
GILA BEND      FAIR      49  39  67 SE5       30.16S
$$

AZZ503-504-507>509-060800-
SOUTHEAST ARIZONA

CITY           SKY/WX    TMP DP  RH WIND       PRES   REMARKS
TUCSON         CLEAR     53  22  29 SE7       30.21F
DAVIS-MONTHAN  CLEAR     50  24  35 E9        30.18F
NOGALES        CLEAR     45  20  36 E8        30.18S
SIERRA VISTA   CLEAR     41  27  56 E12       30.24F
DOUGLAS        CLEAR     45  25  45 E12       30.26F
SAFFORD        CLEAR     48  20  32 E12       30.30F
$$

AZZ020-021-025-026-031-060800-
SOUTHWEST ARIZONA

CITY           SKY/WX    TMP DP  RH WIND       PRES   REMARKS
YUMA           CLEAR     61  29  29 N7        30.15F
$$

CAZ031-033-041-043-047-048-061-060800-
SOUTHERN CALIFORNIA

CITY           SKY/WX    TMP DP  RH WIND       PRES   REMARKS
DOWNTOWN L.A.  CLEAR     58  30  34 CALM      30.16S
L.A. AIRPORT   CLEAR     61  29  29 CALM      30.16F
SAN DIEGO      CLEAR     62  28  27 S3        30.15F
BURBANK        CLEAR     53  25  33 CALM      30.17S
ONTARIO        CLEAR     55  30  38 NW7       30.16F
RIVERSIDE      CLEAR     56  26  31 NE5       30.19F
PALM SPRINGS   CLEAR     65  18  16 W6        30.22F
EL CENTRO NAS  CLEAR     53  33  46 W10       30.17F
IMPERIAL       CLEAR     52  36  54 W7        30.17F
BLYTHE         CLEAR     59  31  34 NW7       30.19S
NEEDLES        CLEAR     59  23  25 NW8       30.24F
$$

NVZ020-UTZ003-060800-
SOUTHERN NEVADA-UTAH

CITY           SKY/WX    TMP DP  RH WIND       PRES   REMARKS
LAS VEGAS      CLEAR     51  31  46 S9        30.28F
SALT LAKE CITY PTCLDY    35  22  58 S7        30.42S WCI  29
$$

NMZ009-TXZ055-060800-
NEW MEXICO-WEST TEXAS

CITY           SKY/WX    TMP DP  RH WIND       PRES   REMARKS
ALBUQUERQUE    CLEAR     36  13  38 E6        30.38S WCI  31
EL PASO        CLEAR     38  20  48 CALM      30.37F
$$


........................KEY........................
SKY/WX - SKY CONDITION/WEATHER
TMP    - TEMPERATURE IN FAHRENHEIT
DP     - DEW POINT IN FAHRENHEIT
RH     - RELATIVE HUMIDITY IN PERCENT
WIND   - DIRECTION AND SPEED IN MILES PER HOUR (MPH)
VRB    - VARIABLE WIND DIRECTION
PRES   - MEAN SEA LEVEL PRESSURE IN INCHES OF MERCURY
         F - FALLING PRESSURE   R - RISING PRESSURE
         S - STEADY PRESSURE
VSB    - VISIBILITY IN MILES
HX     - HEAT INDEX IN FAHRENHEIT
WCI    - WIND CHILL INDEX IN FAHRENHEIT
TC     - TEMPERATURE IN CELSIUS WHICH IS ALSO KNOWN AS
         TEMPERATURE IN CENTIGRADE
AFB    - AIR FORCE BASE
         LUKE AFB IS LUKE AIR FORCE BASE
         DAVIS-MONTHAN IS DAVIS-MONTHAN AIR FORCE BASE
NAS    - NAVAL AIR STATION
         EL CENTRO NAS IS EL CENTRO NAVAL AIR STATION
N/A    - NOT AVAILABLE



USA.gov is the U.S. government's official web portal to all federal, state and local government web resources and services.